IRIDIUM 62

Last updated on Wed Nov 29 2017 00:19:03 GMT+0000 (Coordinated Universal Time)

1 25285U 98021A 17332.51842102 -.00000022 00000-0 -14800-4 0 9994 2 25285 86.3955 155.2623 0001844 90.2562 269.8845 14.34220174 28577
UTC large
Height (km)
Speed (km/s)
/
Latitude / Longitude
Inclination (degrees)
Orbital Period (minutes)
Azimuth
Elevation
Range (km)
Doppler Factor

Next 0 passes for location: London (51.5072 / 0.1276)

Sorry there are no passes over London.